Wetterstation Vordersexau
Wetterdaten: Mrz 2011
Datum Temp. A. Feuchte A. Luftdruck Regen Wind Richtung Taupunkt Windchill Windben
01.03.2011 7,4 C 68 % 1022,4 hPa 0,0 l/m 2,6 km/h N-NO 1,4 C 6,9 C 1,4 km/h
02.03.2011 6,4 C 49 % 1020,5 hPa 0,0 l/m 3,3 km/h N-NO -4,5 C 5,8 C 1,9 km/h
03.03.2011 3,8 C 60 % 1022,3 hPa 0,0 l/m 1,0 km/h O-NO -3,9 C 3,7 C 0,6 km/h
04.03.2011 3,1 C 73 % 1024,4 hPa 0,0 l/m 0,9 km/h SO -1,7 C 2,9 C 0,5 km/h
05.03.2011 4,3 C 74 % 1020,8 hPa 0,0 l/m 1,5 km/h N-NO -0,5 C 4,2 C 0,8 km/h
06.03.2011 1,7 C 75 % 1022,7 hPa 0,0 l/m 1,8 km/h O -2,6 C 1,4 C 1,0 km/h
07.03.2011 4,2 C 55 % 1025,0 hPa 0,0 l/m 4,6 km/h SO -6,1 C 3,1 C 2,6 km/h
08.03.2011 6,3 C 58 % 1023,9 hPa 0,0 l/m 3,8 km/h O-SO -1,7 C 5,4 C 2,1 km/h
09.03.2011 8,5 C 62 % 1019,3 hPa 0,0 l/m 10,3 km/h W-SW 1,1 C 5,8 C 5,7 km/h
10.03.2011 9,4 C 64 % 1018,4 hPa 0,0 l/m 15,7 km/h W 2,8 C 5,1 C 8,7 km/h
11.03.2011 9,5 C 61 % 1017,7 hPa 0,0 l/m 9,7 km/h W-SW 1,9 C 6,6 C 5,4 km/h
12.03.2011 8,2 C 68 % 1008,6 hPa 0,0 l/m 0,3 km/h O-SO 2,1 C 8,2 C 0,2 km/h
13.03.2011 8,7 C 84 % 1004,7 hPa 0,4 l/m 0,3 km/h W-SW 6,1 C 8,7 C 0,2 km/h
14.03.2011 12,0 C 72 % 1012,0 hPa 0,4 l/m 1,3 km/h SO 6,6 C 11,8 C 0,7 km/h
15.03.2011 11,0 C 70 % 1009,4 hPa 0,0 l/m 2,2 km/h NO 5,1 C 10,7 C 1,2 km/h
16.03.2011 8,5 C 80 % 1001,7 hPa 2,1 l/m 1,6 km/h O-SO 5,2 C 8,4 C 0,9 km/h
17.03.2011 7,2 C 86 % 1005,9 hPa 7,1 l/m 0,5 km/h W 5,1 C 7,2 C 0,3 km/h
18.03.2011 7,2 C 84 % 1020,6 hPa 0,0 l/m 7,9 km/h W-SW 4,6 C 4,7 C 4,4 km/h
19.03.2011 6,0 C 82 % 1025,0 hPa 7,1 l/m 0,5 km/h O-NO 3,0 C 6,0 C 0,3 km/h
20.03.2011 6,6 C 65 % 1029,0 hPa 0,4 l/m 1,3 km/h SO -0,7 C 6,5 C 0,8 km/h
21.03.2011 7,6 C 57 % 1029,8 hPa 0,0 l/m 1,2 km/h NO -1,7 C 7,6 C 0,6 km/h
22.03.2011 8,0 C 59 % 1031,6 hPa 0,0 l/m 1,2 km/h O-NO -0,6 C 7,9 C 0,7 km/h
23.03.2011 10,5 C 60 % 1032,8 hPa 0,0 l/m 1,6 km/h NO 1,8 C 10,3 C 0,9 km/h
24.03.2011 11,6 C 66 % 1029,6 hPa 0,0 l/m 2,7 km/h NO 4,5 C 11,2 C 1,5 km/h
25.03.2011 12,6 C 60 % 1018,6 hPa 0,0 l/m 4,7 km/h O-NO 3,6 C 11,9 C 2,6 km/h
26.03.2011 10,1 C 66 % 1013,2 hPa 0,0 l/m 3,0 km/h O-NO 3,5 C 9,5 C 1,7 km/h
27.03.2011 10,2 C 81 % 1010,9 hPa 3,2 l/m 0,2 km/h SO 7,0 C 10,2 C 0,1 km/h
28.03.2011 12,6 C 74 % 1011,0 hPa 5,3 l/m 1,1 km/h SO 7,6 C 12,5 C 0,6 km/h
29.03.2011 12,0 C 67 % 1013,3 hPa 0,0 l/m 1,4 km/h NO 5,0 C 11,9 C 0,8 km/h
30.03.2011 10,6 C 75 % 1015,2 hPa 0,7 l/m 5,9 km/h W-SW 6,3 C 9,4 C 3,3 km/h
31.03.2011 12,3 C 79 % 1019,4 hPa 2,5 l/m 17,5 km/h S-SW 8,7 C 7,5 C 9,7 km/h
Min-Datum 07.03.11 07.03.11 17.03.11 10 Tage 01.03.11 - 07.03.11 01.03.11 01.03.11
Min-Zeit 04:30 16:30 02:30 - 01:30 - 19:30 00:30 01:30
Minimum -5,9 C 17 % 1000,4 hPa - 0,0 km/h - -8,9 C -10,2 C 0,0 km/h
Max-Datum 23.03.11 01.03.11 23.03.11 17.03.11 01.03.11 - 28.03.11 23.03.11 01.03.11
Max-Zeit 16:30 06:30 08:30 01:30 00:30 - 12:30 16:30 00:30
Maximum 26,6 C 89 % 1034,7 hPa 7,1 l/m 64,2 km/h
N-NO
- 12,3 C 26,6 C 35,6 km/h
N-NO
Durchschnitt 8,3 C 69 % 1018,7 hPa #29,2 l/m 3,6 km/h O-NO 2,2 C 7,5 C 2,0 km/h

Durchschnitt Minimum Temp.1,4 C
Durchschnitt Maximum Temp.18,0 C
www.sexauwetter.de